AIC2DM VOMM-VABB

Flight info

Callsign AIC2DM
Flight time N/A
Altitude 34000
Route DOLKI2A DOLKI Q8 BEDOL MOLGO2A
Aircraft A21N/M-SDE2E3FGHIRWXY/LB1

Departure

Time 2026-05-06 12:01
Airport Chennai International Airport (VOMM)

Arrival

Time N/A
Airport Chhatrapati Shivaji Maharaj International Airport (VABB)
Time Latitude Longitude Altitude Speed Heading
2026-05-06 11:17 12.98444 80.16448 64 ft 0 kts 159°
2026-05-06 11:19 12.98449 80.16445 64 ft 0 kts 159°
2026-05-06 11:50 12.98452 80.16444 64 ft 2 kts 155°
2026-05-06 11:51 12.98466 80.16438 64 ft 2 kts 157°
2026-05-06 11:51 12.98481 80.16431 64 ft 2 kts 156°
2026-05-06 11:51 12.98494 80.16426 64 ft 2 kts 172°
2026-05-06 11:51 12.98505 80.16428 64 ft 2 kts 219°
2026-05-06 11:52 12.98512 80.16440 64 ft 2 kts 251°
2026-05-06 11:52 12.98518 80.16455 64 ft 2 kts 248°
2026-05-06 11:52 12.98522 80.16466 64 ft 0 kts 247°
2026-05-06 11:56 12.98520 80.16460 64 ft 3 kts 244°
2026-05-06 11:57 12.98514 80.16447 64 ft 5 kts 246°
2026-05-06 11:57 12.98506 80.16424 64 ft 8 kts 251°
2026-05-06 11:57 12.98479 80.16356 64 ft 13 kts 246°
2026-05-06 11:57 12.98439 80.16254 64 ft 18 kts 245°
2026-05-06 11:58 12.98387 80.16121 64 ft 23 kts 249°
2026-05-06 11:58 12.98333 80.15953 64 ft 27 kts 266°
2026-05-06 11:58 12.98372 80.15850 64 ft 25 kts 295°
2026-05-06 11:58 12.98427 80.15654 64 ft 20 kts 285°
2026-05-06 11:59 12.98454 80.15549 64 ft 22 kts 283°
2026-05-06 11:59 12.98460 80.15521 64 ft 0 kts 284°
2026-05-06 11:59 12.98460 80.15520 64 ft 0 kts 284°
2026-05-06 12:00 12.98461 80.15516 64 ft 2 kts 284°
2026-05-06 12:00 12.98470 80.15481 64 ft 8 kts 284°
2026-05-06 12:00 12.98510 80.15437 64 ft 11 kts 355°
2026-05-06 12:00 12.98568 80.15538 64 ft 43 kts 69°
2026-05-06 12:01 12.98801 80.16167 64 ft 141 kts 70°
2026-05-06 12:01 12.99218 80.17321 88 ft 200 kts 70°
2026-05-06 12:01 12.99725 80.18712 504 ft 213 kts 70°
2026-05-06 12:01 13.00251 80.20113 1012 ft 208 kts 70°
2026-05-06 12:02 13.00839 80.21509 1536 ft 218 kts 69°
2026-05-06 12:02 13.01471 80.22917 2205 ft 212 kts 68°
2026-05-06 12:02 13.02121 80.24240 2661 ft 211 kts 65°
2026-05-06 12:02 13.02875 80.25558 2952 ft 218 kts 59°
2026-05-06 12:03 13.03915 80.26705 3469 ft 230 kts 39°
2026-05-06 12:03 13.05449 80.27151 4847 ft 230 kts
2026-05-06 12:03 13.07041 80.27110 6220 ft 231 kts
2026-05-06 12:03 13.08696 80.27083 7315 ft 242 kts
2026-05-06 12:04 13.10365 80.27050 8623 ft 243 kts
2026-05-06 12:04 13.12076 80.26970 9909 ft 245 kts 357°
2026-05-06 12:04 13.13791 80.26783 11028 ft 249 kts 348°
2026-05-06 12:04 13.15306 80.26006 12120 ft 253 kts 323°
2026-05-06 12:05 13.16504 80.24687 13300 ft 251 kts 313°
2026-05-06 12:05 13.17663 80.23382 14510 ft 252 kts 313°
2026-05-06 12:05 13.18871 80.22018 15629 ft 256 kts 314°
2026-05-06 12:05 13.20095 80.20668 16563 ft 264 kts 313°
2026-05-06 12:06 13.21310 80.19202 17421 ft 273 kts 310°
2026-05-06 12:06 13.22511 80.17698 18376 ft 277 kts 310°
2026-05-06 12:06 13.23780 80.16143 19229 ft 284 kts 310°
2026-05-06 12:06 13.25013 80.14581 20212 ft 282 kts 308°
2026-05-06 12:07 13.26242 80.12972 21009 ft 288 kts 307°
2026-05-06 12:07 13.27474 80.11365 21846 ft 289 kts 308°
2026-05-06 12:07 13.28813 80.09825 22656 ft 291 kts 313°
2026-05-06 12:07 13.29588 80.09015 23100 ft 292 kts 314°
2026-05-06 12:08 13.30597 80.08018 23605 ft 293 kts 314°
2026-05-06 12:08 13.31949 80.06521 24424 ft 290 kts 309°
2026-05-06 12:09 13.33252 80.04928 25126 ft 292 kts 308°
2026-05-06 12:09 13.34552 80.03328 25807 ft 292 kts 308°
2026-05-06 12:09 13.35633 80.02030 26363 ft 291 kts 309°
2026-05-06 12:09 13.36007 80.01590 26553 ft 291 kts 309°
2026-05-06 12:10 13.36548 80.00961 26826 ft 291 kts 310°
2026-05-06 12:10 13.37893 79.99438 27495 ft 289 kts 310°
2026-05-06 12:10 13.39260 79.97937 28166 ft 287 kts 311°
2026-05-06 12:11 13.40643 79.96455 28724 ft 288 kts 312°
2026-05-06 12:11 13.42050 79.94972 29196 ft 291 kts 312°
2026-05-06 12:11 13.43483 79.93483 29653 ft 293 kts 313°
2026-05-06 12:11 13.44927 79.91995 30104 ft 296 kts 313°
2026-05-06 12:12 13.46389 79.90499 30555 ft 297 kts 313°
2026-05-06 12:12 13.47857 79.89002 31005 ft 298 kts 313°
2026-05-06 12:12 13.49332 79.87501 31454 ft 299 kts 313°
2026-05-06 12:12 13.50801 79.86009 31900 ft 298 kts 314°
2026-05-06 12:13 13.52279 79.84509 32350 ft 297 kts 314°
2026-05-06 12:13 13.53744 79.83021 32797 ft 295 kts 314°
2026-05-06 12:13 13.55170 79.81505 33246 ft 292 kts 311°
2026-05-06 12:13 13.56505 79.79951 33694 ft 288 kts 309°
2026-05-06 12:14 13.57802 79.78361 33900 ft 294 kts 308°
2026-05-06 12:14 13.59112 79.76704 33975 ft 304 kts 307°
2026-05-06 12:14 13.60458 79.74967 33998 ft 317 kts 307°
2026-05-06 12:14 13.61407 79.73730 34005 ft 326 kts 307°
2026-05-06 12:15 13.63841 79.70527 34013 ft 349 kts 306°
2026-05-06 12:15 13.65314 79.68576 33986 ft 365 kts 306°
2026-05-06 12:15 13.66906 79.66461 33973 ft 381 kts 306°
2026-05-06 12:16 13.68585 79.64226 34005 ft 398 kts 306°
2026-05-06 12:16 13.69846 79.62546 34009 ft 410 kts 306°
2026-05-06 12:16 13.71528 79.60304 33997 ft 427 kts 306°
2026-05-06 12:16 13.72587 79.58890 33988 ft 435 kts 306°
2026-05-06 12:17 13.75476 79.55034 33994 ft 449 kts 307°
2026-05-06 12:17 13.77960 79.51719 33996 ft 455 kts 307°
2026-05-06 12:18 13.81064 79.47578 33994 ft 460 kts 307°
2026-05-06 12:18 13.82905 79.45121 33993 ft 462 kts 307°
2026-05-06 12:19 13.84687 79.42741 33981 ft 466 kts 306°
2026-05-06 12:19 13.87585 79.38866 33973 ft 475 kts 307°
2026-05-06 12:20 13.90784 79.34585 33985 ft 479 kts 307°
2026-05-06 12:20 13.94937 79.29027 33992 ft 482 kts 307°
2026-05-06 12:21 13.98544 79.24197 33992 ft 483 kts 307°
2026-05-06 12:21 14.02665 79.18677 33993 ft 487 kts 306°
2026-05-06 12:22 14.06803 79.13125 33993 ft 490 kts 306°
2026-05-06 12:22 14.07187 79.12608 33993 ft 490 kts 306°
2026-05-06 12:23 14.09529 79.09463 33993 ft 491 kts 306°
2026-05-06 12:23 14.12967 79.04842 33993 ft 492 kts 307°
2026-05-06 12:24 14.17175 78.99183 33993 ft 495 kts 306°
2026-05-06 12:24 14.19328 78.96285 33993 ft 496 kts 306°
2026-05-06 12:25 14.23095 78.91212 33993 ft 497 kts 306°
2026-05-06 12:25 14.27482 78.85290 33993 ft 498 kts 306°
2026-05-06 12:26 14.30885 78.80406 33994 ft 498 kts 304°
2026-05-06 12:26 14.34457 78.74988 33993 ft 498 kts 303°
2026-05-06 12:27 14.38060 78.69383 33993 ft 498 kts 302°
2026-05-06 12:27 14.41500 78.63973 33993 ft 498 kts 302°
2026-05-06 12:28 14.45298 78.57978 33993 ft 498 kts 302°
2026-05-06 12:28 14.49078 78.52009 33993 ft 498 kts 302°
2026-05-06 12:29 14.52885 78.45996 33993 ft 500 kts 302°
2026-05-06 12:29 14.56680 78.40005 33993 ft 501 kts 302°
2026-05-06 12:30 14.60487 78.33995 33986 ft 501 kts 302°
2026-05-06 12:30 14.64319 78.27947 33970 ft 501 kts 302°
2026-05-06 12:31 14.67065 78.23612 33952 ft 501 kts 302°
2026-05-06 12:31 14.70098 78.18822 33951 ft 501 kts 302°
2026-05-06 12:32 14.73117 78.14053 33953 ft 502 kts 302°
2026-05-06 12:33 14.76279 78.09055 33955 ft 502 kts 302°
2026-05-06 12:34 14.76962 78.07974 33954 ft 502 kts 302°
2026-05-06 12:34 14.80792 78.01919 33918 ft 502 kts 302°
2026-05-06 12:35 14.84603 77.95888 33898 ft 499 kts 302°
2026-05-06 12:35 14.88359 77.89939 33906 ft 497 kts 302°
2026-05-06 12:36 14.92141 77.83944 33910 ft 496 kts 302°
2026-05-06 12:36 14.95904 77.77976 33876 ft 495 kts 302°
2026-05-06 12:37 14.99662 77.72010 33843 ft 494 kts 302°
2026-05-06 12:37 15.03429 77.66026 33843 ft 494 kts 302°
2026-05-06 12:38 15.07132 77.60138 33786 ft 495 kts 302°
2026-05-06 12:38 15.10886 77.54163 33752 ft 495 kts 302°
2026-05-06 12:39 15.14644 77.48179 33742 ft 495 kts 302°
2026-05-06 12:39 15.18396 77.42199 33742 ft 495 kts 302°
2026-05-06 12:40 15.22155 77.36203 33742 ft 495 kts 302°
2026-05-06 12:40 15.23232 77.34485 33743 ft 495 kts 302°
2026-05-06 12:42 15.23361 77.34279 33743 ft 495 kts 302°
2026-05-06 12:42 15.23737 77.33678 33743 ft 495 kts 302°
2026-05-06 12:43 15.25480 77.30896 33739 ft 496 kts 302°
2026-05-06 12:43 15.29205 77.24946 33736 ft 496 kts 302°
2026-05-06 12:44 15.32965 77.18934 33734 ft 497 kts 302°
2026-05-06 12:44 15.36721 77.12921 33733 ft 496 kts 302°
2026-05-06 12:45 15.39912 77.07914 33733 ft 496 kts 303°
2026-05-06 12:46 15.46086 76.99277 33732 ft 497 kts 306°
2026-05-06 12:46 15.50319 76.93676 33732 ft 497 kts 307°
2026-05-06 12:47 15.54622 76.88051 33733 ft 497 kts 307°
2026-05-06 12:47 15.58922 76.82433 33734 ft 496 kts 307°
2026-05-06 12:48 15.62485 76.77759 33734 ft 496 kts 307°
2026-05-06 12:48 15.66756 76.72129 33736 ft 496 kts 307°
2026-05-06 12:49 15.71696 76.65588 33737 ft 494 kts 307°
2026-05-06 12:49 15.75337 76.60760 33739 ft 494 kts 307°
2026-05-06 12:50 15.77671 76.57664 33739 ft 494 kts 307°
2026-05-06 12:50 15.81900 76.52047 33740 ft 494 kts 307°
2026-05-06 12:51 15.86127 76.46429 33742 ft 494 kts 307°
2026-05-06 12:51 15.90359 76.40798 33743 ft 494 kts 307°
2026-05-06 12:52 15.94579 76.35180 33745 ft 494 kts 307°
2026-05-06 12:52 15.98809 76.29543 33746 ft 494 kts 307°
2026-05-06 12:53 16.02791 76.24233 33748 ft 494 kts 307°
2026-05-06 12:53 16.06226 76.19649 33749 ft 494 kts 307°
2026-05-06 12:54 16.10493 76.13951 33751 ft 494 kts 307°
2026-05-06 12:54 16.14797 76.08199 33753 ft 495 kts 307°
2026-05-06 12:55 16.19171 76.02349 33754 ft 495 kts 307°
2026-05-06 12:55 16.21926 75.98662 33755 ft 495 kts 307°
2026-05-06 12:56 16.26123 75.93042 33757 ft 494 kts 307°
2026-05-06 12:56 16.30322 75.87413 33759 ft 494 kts 307°
2026-05-06 12:57 16.32717 75.84202 33751 ft 494 kts 307°
2026-05-06 12:57 16.33434 75.83239 33752 ft 494 kts 307°